Regional Weather Roundup
Issued by NWS

Home | Current Version | Previous Version | Graphics & Text | Print | Product List | Glossary On
Versions: 1 2 3 4 5 6 7 8 9 10 11 12 13 14 15 16 17 18 19 20 21 22 23 24 25 26 27 28 29 30 31 32 33 34 35 36 37 38 39 40 41 42 43 44 45 46 47 48 49 50
975
ASUS43 KIND 262309
RWRIN

WEATHER ROUNDUP FOR INDIANA
NATIONAL WEATHER SERVICE INDIANAPOLIS IN
700 PM EDT MON JUN 26 2017

NOTE: "FAIR" INDICATES FEW OR NO CLOUDS BELOW 12,000 FEET WITH NO
SIGNIFICANT WEATHER AND/OR OBSTRUCTIONS TO VISIBILITY.

* - STATION DOES NOT REPORT WEATHER SUCH AS PRECIPITATION OR FOG.

+ - STATION NOT QUALITY CONTROLLED BY THE NATIONAL WEATHER SERVICE.
    USE DATA WITH CAUTION...ESPECIALLY DEWPOINT AND RELATIVE
    HUMIDITY OBSERVATIONS.

INZ001>003-010>013-019-020-270000-
NORTHWEST INDIANA

CITY           SKY/WX    TMP DP  RH WIND       PRES   REMARKS
GARY /AIRPORT/ PTSUNNY   72  36  26 NW14G25   30.03S
KNOX *+        MOSUNNY   64  39  39 NW5       30.02S
LA PORTE +     MOSUNNY   67  47  49 N15       30.03S
MICHIGAN CITY+ MOSUNNY   64  48  55 N16       30.03F
MONTICELLO +   DRIZZLE   60  49  68 SW13G20   30.04F
VALPARAISO     PTSUNNY   69  48  47 N10G18    30.03S

$$

LMZ046-743>745-270000-
SOUTHERN LAKE MICHIGAN

STATION/POSITION TIME  TEMP    WIND        PRES    WAVE
                       AIR SEA DIR/SP/G            HT
                 (UTC) (F)     (DEG/KT/KT) (MB)    (FT)
BURNS HARBOR     2240   65     360/ 17/ 20 1016.9F
MICHIGAN CITY    2240   63     360/ 19/ 20   N/A
5NW MICH CITY    2300   62 66   20/ 16/ 19   N/A     3

$$

INZ004-005-014>016-021>024-270000-
NORTH CENTRAL INDIANA

CITY           SKY/WX    TMP DP  RH WIND       PRES   REMARKS
ELKHART        MOSUNNY   68  43  40 NW13G21   30.01F
GOSHEN         MOSUNNY   65  46  50 W10       30.00F
LOGANSPORT +   CLOUDY    59  50  72 SW10      30.06F
PERU/GRISSOM   PTSUNNY   58  55  88 SW6       30.03F
ROCHESTER +    MOSUNNY   64  50  59 W5        30.03F
SOUTH BEND     SUNNY     66  45  46 NW15      30.02S
WARSAW +       PTSUNNY   63  50  63 W9        30.02S

$$

INZ006>009-017-018-025>027-270000-
NORTHEAST INDIANA

CITY           SKY/WX    TMP DP  RH WIND       PRES   REMARKS
AUBURN +       CLOUDY    59  50  72 SW5       30.02F
FORT WAYNE     LGT RAIN  57  53  86 S8        30.04R
HUNTINGTON +   LGT RAIN  56  54  94 CALM      30.05F
KENDALLVILLE + PTSUNNY   64  50  60 W10       30.02S

$$

INZ028-029-035-036-043>045-051>053-270000-
WEST CENTRAL INDIANA

CITY           SKY/WX    TMP DP  RH WIND       PRES   REMARKS
CRAWFORDSVL +  MOSUNNY   67  49  51 W14G21    30.07S
GREENCASTLE +  MOSUNNY   68  46  45 W7G16     30.09S
LAFAYETTE      LGT RAIN  56  52  86 N9        30.07R FOG
TERRE HAUTE    CLOUDY    68  49  50 W8        30.10F

$$

INZ030>032-037>040-046>048-054>057-064-065-270000-
CENTRAL INDIANA

CITY           SKY/WX    TMP DP  RH WIND       PRES   REMARKS
CP ATTERBURY + CLOUDY    70  46  43 W8G16     30.08F
COLUMBUS       PTSUNNY   70  41  35 W12       30.08
FRANKFORT +    CLOUDY    64  48  57 N18       30.09R
GREENWOOD *+   PTSUNNY   70  45  41 W12G20    30.08F
INDIANAPOLIS   PTSUNNY   70  48  45 W13       30.06F
-EAGLE CREEK   MOSUNNY   69  48  47 W13G18    30.05F
KOKOMO +       LGT RAIN  59  54  83 NW10      30.07R
MARION +       CLOUDY    59  48  67 N16G23    30.07R
MT COMFORT *+  MOSUNNY   70  46  43 W17       30.07S
SHELBYVILLE    PTSUNNY   72  46  39 W16G23    30.06F
ZIONSVILLE +   SUNNY     68  48  49 W10G20    30.06F

$$

INZ033-034-041-042-049-050-058-059-270000-
EAST CENTRAL INDIANA

CITY           SKY/WX    TMP DP  RH WIND       PRES   REMARKS
MUNCIE         CLOUDY    71  45  39 W12G20    30.03F
RICHMOND +     CLOUDY    66  45  45 W15       30.07F

$$

INZ060-061-067>069-081>083-085>088-270000-
SOUTHWEST INDIANA

CITY           SKY/WX    TMP DP  RH WIND       PRES   REMARKS
EVANSVILLE     CLOUDY    73  49  42 N8        30.10F
HUNTINGBURG *+ CLOUDY    72  51  47 N9        30.10F
WASHINGTON +   PTSUNNY   69  48  47 NW5       30.11F

$$

INZ062-063-066-070>080-084-089>092-270000-
SOUTH CENTRAL AND SOUTHEAST INDIANA

CITY           SKY/WX    TMP DP  RH WIND       PRES   REMARKS
BEDFORD +      CLOUDY    68  45  42 CALM      30.09F
BLOOMINGTON    CLOUDY    69  46  43 W6        30.09F
MADISON *+     CLOUDY    72  46  40 NW6       30.10F
NORTH VERNON + PTSUNNY   68  50  52 W10       30.08F
SEYMOUR +      CLOUDY    72  50  46 W9G16     30.08F

$$





USA.gov is the U.S. government's official web portal to all federal, state and local government web resources and services.